www.pogodaiklimat.ru

Погода и климат >> Архив погоды >> Россия >> Якутия >> Томмот


ПОГОДА в Томмоте

  • Прогноз погоды в Томмоте
  • Монитор погоды в Томмоте

АРХИВ ПОГОДЫ в Томмоте

Время (UTC), дата Ветер
(напр.,м/с)
 
Видим.   Явления Облачность Т
(С)
Тd
(С)
f
(%)
Тe
(С)
Тes
(С)
Комфортность P
(гПа)
Po
(гПа)
Тmin
(С)
Tmax
(С)
R
(мм)
R24
(мм)
S
(см)
00 16.09 СЗ 2 2000 м ливневой снег 10/10 600 м
[Cb cap]
+0.5 -0.3 94 -3 -3 1007.2 972.3 +0.5 4
03 16.09 СЗ 2 10 км слаб. ливневой снег 10/10 600 м
[Cb cap]
+0.5 -0.3 94 -3 -3 1007.5 972.6 +0.3
06 16.09 СЗ 2 50 км {ливн. осадки} 10/10 600 м
[Cb cap]
+1.9 -0.9 82 -1 -1 1008.0 973.3
09 16.09 З 2 50 км 10/10 600 м
[Cb cap]
+2.3 -0.4 82 -1 -1 1009.5 974.7
12 16.09 СЗ 1 20 км 10/10 600 м
[Cb cap]
+2.2 +0.3 87 +1 +1 1010.6 975.8 +2.7 0.8
15 16.09 СЗ 1 20 км 10/6 600 м
[Cb cap Ci sp]
+2.0 +0.4 89 0 0 1010.8 976.0
18 16.09 штиль 0 20 км 10/10 600 м
[Cb cap]
+1.8 +0.2 89 +1 +1 1011.5 976.6
21 16.09 З 1 10 км слаб. ливневой снег 10/10 600 м
[Cb cap]
+1.8 -0.4 85 0 0 1012.7 977.7
00 17.09 З 2 50 км {ливн. осадки} 10/10 600 м
[Cb cap]
+2.5 -0.5 81 -1 -1 1012.9 978.0 +1.6 0.0
03 17.09 З 2 50 км 10/8 600 м
[Cb cap Ac und]
+4.4 -0.1 73 +2 +2 1013.0 978.4
06 17.09 З 1 50 км {ливн. осадки} 10/5 600 м
[Cb cap Ci sp]
+4.7 +1.4 79 +4 +5 1012.9 978.4
09 17.09 ЮЗ 1 50 км в посл. час ливневой дождь 10/6 600 м
[Cb cap Cs]
+3.8 +2.3 90 +2 +2 1013.3 978.7
12 17.09 ЮЗ 2 20 км в посл. час ливневой дождь 10/8 600 м
[Cb cap Cs]
+3.1 +0.7 84 0 0 1014.9 980.1 +5.5 1
15 17.09 СЗ 2 20 км 10/8 600 м
[Cb cap Cs]
+2.9 -0.4 79 0 0 1015.4 980.5
18 17.09 СЗ 1 20 км 10/8 600 м
[Cb cap Ci sp]
+2.0 -0.8 82 0 0 1015.8 980.8
21 17.09 З 1 20 км 10/10 600 м
[Cb cap]
+1.7 -1.4 80 0 0 1016.7 981.6
00 18.09 СЗ 2 50 км 10/10 1000 м
[Sc]
+2.8 -2.0 71 0 0 1017.9 982.9 +1.5
03 18.09 СЗ 2 50 км 10/10 600 м
[Cb cap]
+5.4 -3.8 51 +3 +3 1017.5 982.9
06 18.09 СЗ 2 50 км 9/9 600 м
[Cb cap]
+6.7 -4.5 45 +5 +6 1016.3 981.8
09 18.09 ЮЗ 1 50 км 4/4 1000 м
[Sc]
+7.3 -4.0 44 +7 +7 1016.5 982.1
12 18.09 штиль 0 20 км ясно -1.9 -4.2 84 -3 -3 1018.9 983.4 +8.7
15 18.09 штиль 0 20 км ясно -5.4 -6.1 95 -6 -6 1019.0 983.0
18 18.09 штиль 0 20 км ясно -9.2 -9.9 95 -10 -10 1018.7 982.1
21 18.09 С 1 2000 м дымка ясно -7.1 -7.6 96 -10 -10 1017.1 980.8
00 19.09 штиль 0 50 км 10/0 2000 м
[As trans]
-4.8 -6.1 91 -6 -5 1013.5 977.7 -9.4
03 19.09 В 3 50 км 10/0 2000 м
[As op]
+4.8 -4.7 50 +2 +3 1008.7 974.3
06 19.09 З 1 10 км слаб. ливневой дождь 10/10 600 м
[Cb cap]
+4.2 +2.5 89 +3 +3 1007.6 973.2
09 19.09 ЮЗ 1 10 км слаб. ливневой дождь 10/10 600 м
[Cb cap]
+4.1 +3.6 97 +2 +2 1009.5 975.0
12 19.09 ЮЗ 2 20 км {ливн. осадки} 10/10 600 м
[Cb cap]
+3.9 +2.4 90 +1 +1 1010.9 976.4 +5.4 5
15 19.09 ЮЗ 2 20 км 10/10 1000 м
[Sc]
+2.4 +1.4 93 -1 -1 1013.9 979.0
18 19.09 З 2 20 км 10/4 600 м
[Cb cap Ci sp]
+2.1 -0.4 84 -1 -1 1016.3 981.3
21 19.09 ЮЗ 2 20 км 10/10 600 м
[Cb cap]
+2.0 -0.5 83 -1 -1 1018.2 983.2
00 20.09 З 1 50 км 10/10 600 м
[Cb cap]
+2.4 +0.3 86 +1 +1 1019.9 984.8 +2.0
03 20.09 СЗ 2 50 км 10/10 600 м
[Cb cap]
+4.4 +0.5 76 +2 +2 1020.5 985.7
06 20.09 СЗ 1 50 км 10/10 600 м
[Cb cap]
+5.6 -0.1 67 +5 +5 1020.8 986.1
09 20.09 Ю 1 50 км 8/8 600 м
[Cb cap]
+5.5 -1.5 61 +5 +5 1020.9 986.2
12 20.09 Ю 1 20 км ясно 0.0 -1.4 90 -2 -2 1021.0 985.6 +6.3
15 20.09 Ю 1 20 км ясно -3.8 -4.3 96 -6 -6 1020.6 984.7
18 20.09 штиль 0 20 км ясно -6.4 -7.6 91 -7 -7 1019.2 983.0
21 20.09 штиль 0 20 км 10/0
[Cs]
-4.7 -5.6 93 -6 -6 1016.8 980.9
00 21.09 штиль 0 4000 м слаб. ливневой снег 10/10 600 м
[Cb cap]
-2.2 -2.8 96 -4 -4 1015.7 980.2 -6.5 0.3
03 21.09 С 1 50 км в посл. час ливневой снег 10/10 600 м
[Cb cap]
+1.6 0.0 89 -0 -0 1014.5 979.5
06 21.09 ЮЗ 1 10 км слаб. ливневой дождь 10/10 600 м
[Cb cap]
+3.6 +2.9 95 +2 +2 1014.3 979.5
09 21.09 ЮЗ 1 20 км в посл. час ливневой дождь 10/10 600 м
[Cb cap]
+4.7 +3.5 92 +3 +3 1014.3 979.8
12 21.09 штиль 0 20 км в посл. час переохл. осадки (гололёд) {морось} 10/10 300 м
[St]
+4.4 +4.2 99 +3 +3 1014.6 980.0 +5.5 0.8
15 21.09 Ю 1 10 км слаб. ливневой дождь 10/10 600 м
[Cb cap]
+4.5 +4.3 99 +3 +3 1013.6 979.0
18 21.09 штиль 0 4000 м дымка {ливн. осадки} 6/6 600 м
[Cb cap]
+2.9 +2.9 100 +2 +2 1011.6 977.0
21 21.09 ЮВ 1 1000 м слаб. ливневой дождь {туман} 10/10 600 м
[Cb cap]
+3.5 +3.5 100 +2 +2 1011.2 976.7
00 22.09 Ю 1 50 км {ливн. осадки, туман} 10/10 600 м
[Cb cap]
+4.7 +4.5 99 +3 +3 1010.2 975.8 +2.0 2
03 22.09 С 1 20 км слаб. ливневой дождь 10/10 600 м
[Cb cap]
+5.9 +5.7 99 +5 +5 1010.8 976.5
06 22.09 З 1
{11}
50 км {ливн. осадки} 10/8 600 м
[Cb cap Cs]
+9.7 +7.6 87 +9 +10 1012.7 978.8
09 22.09 ЮЗ 1 50 км 8/5 600 м
[Cb cap Ci fib]
+9.8 +7.3 84 +9 +9 1013.4 979.5
12 22.09 штиль 0 20 км 10/8 600 м
[Cb cap Ci fib]
+5.1 +4.9 99 +4 +4 1015.9 981.3 +11.0 7
15 22.09 З 1 20 км 10/6 600 м
[Cb cap Ci fib]
+4.8 +4.6 99 +3 +3 1015.8 981.2
18 22.09 В 1 20 км 8/4 1000 м
[Sc Ci fib]
+0.5 +0.2 98 -2 -2 1017.4 982.2
21 22.09 штиль 0 20 км 1/0
[Ac As]
0.0 -0.3 98 -1 -1 1018.6 983.4

 

Местоположение метеостанции Томмот (Якутия, Россия): широта 58.97 долгота 126.20 высота над уровнем моря 284 м.

В архиве по умолчанию представлена погода в Томмоте за последнюю неделю. Архивные данные за месяц целиком и за предыдущие месяцы, начиная с января 2011 года, Вы можете получить, выбрав интересующий диапазон дат из раскрывающегося списка и нажав кнопку "Ввод!".


*Определитесь, кто Вы:
робот инопланетянин человек

Внимание! Время в таблицах - всемирное. Для получения местного времени необходимо прибавить поправку, которая равна 9 ч.

Смотрите также архив погоды в соседних городах и на ближайших метеорологических станциях:

Погода в Алдане (Якутия, Россия) (66 км)
Погода в Буяге (Якутия, Россия) (90 км)
Погода в Угино (Якутия, Россия) (138 км)
Погода в Канкунском (Якутия, Россия) (148 км)
Погода в Суон-Тите (Якутия, Россия) (176 км)
Погода в Исити (Якутия, Россия) (212 км)
Погода в Нерюнгри (Якутия, Россия) (251 км)
Погода в Учуре (Якутия, Россия) (255 км)
Погода в Джикимде (Якутия, Россия) (258 км)
Погода в Тегюльте (Якутия, Россия) (271 км)

Пояснения к столбцам:

Ветер - указаны скорость ветра в м/с - средняя за 10 мин, порывы в срок и между сроками (в фигурных скобках) и направление, откуда дует ветер: С - северный, СВ - северо-восточный, В - восточный, ЮВ - юго-восточный, Ю - южный, ЮЗ - юго-западный, З - западный, СЗ - северо-западный.
Видимость - горизонтальная дальность видимости в метрах или километрах. При видимости от 1 до 10 км при отсутствии осадков обычно наблюдается дымка, при ухудшении видимости до 1 км и менее - туман. В сухую погоду видимость может ухудшаться дымом, пылью или мглою.
Явления - указаны атмосферные явления, наблюдавшиеся в срок или в последний час перед сроком; фигурными скобками обозначены явления, наблюдавшиеся между сроками (за 1-3 часа до срока); квадратными скобками обозначены град или гололедные отложения с указанием их диаметра в мм.
Облачность - указаны через наклонную черту общая и нижняя облачность в баллах и высота нижней границы облаков в метрах; квадратными скобками обозначены формы облаков: Ci - перистые, Cs - перисто-слоистые, Cc - перисто-кучевые, Ac - высококучевые, As - высокослоистые, Sc - слоисто-кучевые, Ns - слоисто-дождевые, Cu - кучевые, Cb - кучево-дождевые. Подробнее классификацию облаков см. в Атласе облаков (PDF).
T - Температура воздуха - температура, измеренная на высоте 2 м над землей.
Td - Температура точки росы - температура, при понижении до которой содержащийся в воздухе водяной пар достигнет насыщения.
f - Относительная влажность воздуха - влажноcть воздуха, измеренная на высоте 2 м над землей.
Te - Эффективная температура - температура, которую ощущает одетый по сезону человек в тени. Характеристика душности погоды. При расчете учитывается влияние влажности воздуха и скорости ветра на теплоощущения человека.
Tes - Эффективная температура на солнце - температура, которую ощущает человек, с поправкой на солнечный нагрев. Характеристика знойности погоды. Зависит от высоты солнца над горизонтом, облачности и скорости ветра. Ночью, в пасмурную погоду, а также при ветре 12 м/с и более поправка равна нулю.
P - Атмосферное давление - приведенное к уровню моря атмосферное давление.
Po - Атмосферное давление - измеренное на уровне метеостанции атмосферное давление.
Tmin - Минимальная температура - минимум температуры воздуха на высоте 2 м над землей.
Tmax - Максимальная температура - максимум температуры воздуха на высоте 2 м над землей.
R - Количество осадков - Количество выпавших осадков за период времени, мм. При наведении курсора мыши на число - период времени, за который выпало указанное количество осадков.
R24 - Количество осадков - Количество выпавших осадков за 24 часа, мм.
S - Снежный покров - Высота снежного покрова, см. При наведении курсора мыши на число - состояние снежного покрова и степень покрытия местности в баллах.